Date,TemperatureHighF,TemperatureAvgF,TemperatureLowF,DewpointHighF,DewpointAvgF,DewpointLowF,HumidityHigh,HumidityAvg,HumidityLow,PressureMaxIn,PressureMinIn,WindSpeedMaxMPH,WindSpeedAvgMPH,GustSpeedMaxMPH,PrecipitationSumIn
2013-1-1,81.0,64.7,52.0,63.0,57.2,51.0,95,78,51,30.19,30.03,13,4,23,0.00
2013-1-2,81.0,63.3,50.0,67.0,58.4,50.0,98,85,60,30.10,29.95,8,3,14,0.00
2013-1-3,82.0,65.8,54.0,69.0,60.9,54.0,98,86,49,30.12,29.93,10,3,19,0.00
2013-1-4,83.0,69.1,58.0,70.0,65.2,57.0,98,88,58,30.22,29.97,6,3,12,0.00
2013-1-5,79.0,67.9,62.0,67.0,63.6,61.0,97,86,64,30.20,30.05,8,5,39,0.00
2013-1-6,83.0,68.4,58.0,70.0,64.5,58.0,98,88,59,30.17,29.95,8,3,14,0.00
2013-1-7,78.0,69.6,61.0,68.0,65.8,61.0,98,88,69,30.12,29.92,8,4,17,0.00
2013-1-8,86.0,73.3,67.0,70.0,66.8,65.0,97,81,51,30.14,29.95,8,5,16,0.00
2013-1-9,85.0,74.5,67.0,70.0,67.3,64.0,98,80,52,30.21,30.07,12,5,22,0.00
2013-1-10,84.0,72.9,65.0,68.0,64.5,60.0,96,77,45,30.24,30.13,12,5,22,0.00
2013-1-11,83.0,68.6,54.0,67.0,61.4,53.0,98,80,48,30.24,30.10,9,4,18,0.00
2013-1-12,84.0,68.2,54.0,69.0,62.5,52.0,98,83,52,30.15,30.04,10,4,58,0.00
2013-1-13,83.0,65.5,51.0,67.0,59.3,50.0,98,82,53,30.11,30.02,10,4,17,0.00
2013-1-14,82.0,65.0,51.0,64.0,57.7,50.0,98,79,51,30.15,30.08,9,4,39,0.00
2013-1-15,82.0,63.3,49.0,67.0,57.6,48.0,98,83,55,30.14,30.05,8,3,33,0.00
2013-1-16,83.0,65.7,49.0,66.0,58.9,48.0,98,81,50,30.11,30.01,8,3,15,0.00
2013-1-17,82.0,66.7,56.0,70.0,60.4,50.0,98,81,53,30.13,29.99,13,6,27,0.00
2013-1-18,67.0,57.3,49.0,55.0,48.1,39.0,93,72,53,30.29,30.12,8,4,16,0.00
2013-1-19,76.0,65.6,57.0,63.0,60.0,55.0,96,82,63,30.23,30.10,7,4,37,0.00
2013-1-20,79.0,68.0,61.0,65.0,63.0,60.0,97,85,56,30.15,30.02,6,3,35,0.00
2013-1-21,75.0,66.4,55.0,66.0,62.7,53.0,98,88,67,30.09,29.99,9,4,17,0.00
2013-1-22,71.0,62.0,52.0,60.0,52.3,44.0,98,72,50,30.25,30.04,8,5,19,0.00
2013-1-23,74.0,58.5,46.0,51.0,45.3,37.0,90,63,42,30.32,30.23,9,5,60,0.00
2013-1-24,76.0,55.4,40.0,50.0,43.2,38.0,97,70,28,30.32,30.21,6,3,14,0.00
2013-1-25,78.0,54.9,35.0,56.0,45.0,34.0,97,73,40,30.31,30.18,6,3,14,0.00
2013-1-26,78.0,56.0,39.0,53.0,44.6,38.0,97,72,28,30.28,30.17,7,3,13,0.00
2013-1-27,81.0,64.1,44.0,61.0,53.7,42.0,96,71,43,30.28,30.19,8,5,39,0.00
2013-1-28,83.0,67.8,53.0,63.0,58.3,52.0,96,74,45,30.31,30.20,9,4,19,0.00
2013-1-29,84.0,69.4,54.0,68.0,62.0,53.0,98,79,51,30.24,30.10,11,5,22,0.00
2013-1-30,82.0,68.5,54.0,66.0,61.7,53.0,98,80,51,30.13,29.98,14,7,25,0.00
2013-1-31,61.0,60.1,59.0,59.0,57.7,57.0,95,91,86,30.14,30.11,7,6,15,0.00